Location: Aurora Center
(43.5271°N, 98.5894°W)
Time: 01:49:21
(UTC-05:00)

BlueWalker 3 - Pass Details

Date: 20 June 2024
Orbit: 480 x 492 km, 53.2° (Epoch: 15 July)

Event Time Altitude Azimuth Distance (km) Brightness Sun altitude
Rises 05:10:53 0° 300° (WNW) 2,538 5.3 -6.9°
Reaches altitude 10° 05:13:08 10° 293° (WNW) 1,656 4.3 -6.6°
Maximum altitude 05:16:37 38° 224° (SW) 743 2.3 -6.1°
Drops below altitude 10° 05:20:06 10° 155° (SSE) 1,651 4.4 -5.6°
Sets 05:22:20 0° 147° (SSE) 2,528 5.4 -5.3°
